{"data":{"norad_id":27612,"epoch":"2026-05-25T01:32:33.270144Z","epoch_age_seconds":83680,"freshness":"FRESH","line1":"1 27612U 02058H   26145.06427396  .00000503  00000+0  74461-4 0  9991","line2":"2 27612  64.5555  33.4273 0054262 251.4504 108.0704 14.85427081264194","mean_motion":14.85427081,"eccentricity":0.0054262,"inclination_deg":64.5555,"raan_deg":33.4273,"arg_perigee_deg":251.4504,"mean_anomaly_deg":108.0704,"bstar":7.4461e-5,"rev_number":26419,"period_min":96.94181682958,"perigee_km":574.31444071963,"apogee_km":650.17686944565,"semimajor_km":6990.3826550826,"source":"CELESTRAK","updated_at":"2026-05-25T13:37:55.030967Z"}}